Location: El Mouella
(16.4949°N, 9.1594°W)
Time: 15:06:38
(UTC+00:00)

STARLINK-1134 - Pass Details

Date: 02 June 2020
Orbit: 549 x 550 km, 53.0° (Epoch: 04 July)

Event Time Altitude Azimuth Distance (km) Brightness Sun altitude
Rises 20:12:23 0° 323° (NW) 2,714 8.4 -15.0°
Reaches altitude 10° 20:14:37 10° 324° (NW) 1,820 7.3 -15.4°
Maximum altitude 20:18:45 90° 259° (WSW) 554 3.5 -16.3°
Enters shadow 20:20:40 31° 144° (SE) 975 4.4 -16.7°
